DW2738 Weather Reports


time (UTC)temp
C
wind
direction
speed
KPH
gust
KPH
rain 1hr
cm
rain 24hr
cm
rain mn
cm
humidity
%
barometer
mb
20260507094432 10 200 0.0 1.6 0.00 0.76 0.76 99 1009.9
20260507093929 10 352 0.0 0.0 0.00 0.76 0.76 99 1009.8
20260507093427 10 352 0.0 0.0 0.00 0.76 0.76 99 1009.8
20260507092925 10 261 0.0 1.6 0.00 0.76 0.76 99 1009.8
20260507092421 10 279 0.0 1.6 0.00 0.76 0.76 99 1009.9
20260507091918 10 234 1.6 1.6 0.00 0.76 0.76 99 1009.7
20260507091414 10 261 0.0 3.2 0.00 0.76 0.76 99 1009.6
20260507090910 10 220 1.6 3.2 0.00 0.76 0.76 99 1009.7
20260507090407 10 289 1.6 3.2 0.00 0.76 0.76 99 1009.4
20260507085903 10 261 0.0 3.2 0.00 0.76 0.76 99 1009.5
20260507085400 10 180 0.0 4.8 0.00 0.76 0.76 99 1009.4
20260507084858 10 0 0.0 4.8 0.00 0.76 0.76 99 1009.7
20260507084354 10 270 3.2 3.2 0.00 0.76 0.76 99 1009.6
20260507083851 10 339 3.2 3.2 0.00 0.76 0.76 99 1009.4
20260507083348 10 180 0.0 3.2 0.00 0.76 0.76 99 1009.5
20260507082844 10 353 0.0 1.6 0.00 0.76 0.76 99 1009.2
20260507082339 10 337 0.0 1.6 0.00 0.76 0.76 99 1009.5
20260507081837 10 8 0.0 3.2 0.00 0.76 0.76 99 1009.3
20260507081333 10 262 0.0 0.0 0.00 0.76 0.76 99 1009.7
20260507080830 10 340 0.0 0.0 0.00 0.76 0.76 99 1009.5
20260507080326 10 261 0.0 3.2 0.00 0.76 0.76 99 1009.4
20260507075821 10 74 1.6 6.4 0.00 0.76 0.76 99 1009.3
20260507075318 10 230 3.2 4.8 0.05 0.76 0.76 99 1009.4
20260507074815 11 282 1.6 14.5 0.05 0.76 0.76 99 1009.0
20260507074312 11 270 0.0 6.4 0.00 0.76 0.76 99 1009.2
20260507073809 11 302 4.8 4.8 0.00 0.76 0.76 99 1009.0
20260507073306 11 246 0.0 4.8 0.00 0.76 0.76 99 1008.7
20260507072803 11 356 3.2 4.8 0.00 0.76 0.76 99 1008.7
20260507072301 12 0 0.0 3.2 0.00 0.76 0.76 99 1008.6
20260507071758 12 261 0.0 14.5 0.00 0.76 0.76 99 1009.1
20260507071254 12 274 4.8 6.4 0.00 0.76 0.76 99 1008.8
20260507070751 12 297 0.0 3.2 0.00 0.76 0.76 99 1008.3
20260507070248 12 249 0.0 1.6 0.13 0.76 0.76 99 1008.8
20260507065744 12 340 0.0 1.6 0.30 0.76 0.76 99 1008.7
20260507065241 12 355 1.6 4.8 0.71 0.74 0.74 99 1009.2
20260507064739 12 252 4.8 4.8 1.02 0.71 0.71 99 1009.5
20260507064238 12 270 4.8 4.8 0.23 0.56 0.56 99 1008.7
20260507063734 13 270 3.2 4.8 0.13 0.53 0.53 99 1008.5
20260507063231 13 283 0.0 3.2 0.30 0.53 0.53 99 1008.6
20260507062728 13 275 3.2 6.4 1.45 0.51 0.51 98 1008.5
20260507062225 13 278 1.6 8.0 1.93 0.48 0.48 98 1008.3
20260507061724 14 201 0.0 3.2 1.98 0.46 0.46 97 1008.5
20260507061221 15 285 1.6 4.8 0.53 0.18 0.18 97 1008.6
20260507060719 16 308 3.2 6.4 0.66 0.13 0.13 96 1008.4
20260507060215 16 352 0.0 6.4 0.43 0.08 0.08 96 1008.4
20260507055711 17 257 0.0 3.2 0.13 0.03 0.03 95 1008.1
20260507055207 17 264 3.2 3.2 0.05 0.00 0.00 95 1007.9
20260507054703 17 261 3.2 3.2 0.00 0.00 0.00 95 1008.0
20260507054200 17 261 3.2 3.2 0.00 0.00 0.00 95 1007.6
20260507053658 17 246 3.2 3.2 0.00 0.00 0.00 94 1007.9
20260507053156 17 257 1.6 4.8 0.00 0.00 0.00 94 1007.9
20260507052654 17 261 3.2 4.8 0.00 0.00 0.00 94 1008.0
20260507052150 17 257 1.6 3.2 0.00 0.00 0.00 94 1007.8
20260507051648 17 270 0.0 1.6 0.00 0.00 0.00 94 1007.3
20260507051144 17 254 0.0 1.6 0.00 0.00 0.00 94 1007.6
20260507050641 17 203 0.0 3.2 0.00 0.00 0.00 94 1007.8
20260507050138 17 253 3.2 3.2 0.00 0.00 0.00 94 1007.9
20260507045635 17 240 0.0 3.2 0.00 0.00 0.00 94 1008.1
20260507045131 17 246 0.0 3.2 0.00 0.00 0.00 94 1008.0
20260507044629 17 240 0.0 3.2 0.00 0.00 0.00 94 1007.9
20260507044125 17 262 0.0 3.2 0.00 0.00 0.00 94 1007.7
20260507043621 17 254 0.0 0.0 0.00 0.00 0.00 94 1007.8
20260507043118 17 262 0.0 1.6 0.00 0.00 0.00 95 1007.9
20260507042614 17 255 3.2 3.2 0.00 0.00 0.00 95 1008.3
20260507042110 17 249 0.0 3.2 0.00 0.00 0.00 95 1008.2
20260507041607 17 270 0.0 3.2 0.00 0.00 0.00 95 1008.2
20260507041104 16 254 0.0 0.0 0.00 0.00 0.00 95 1008.0
20260507040600 16 270 3.2 3.2 0.00 0.00 0.00 95 1008.0
20260507040057 16 246 3.2 3.2 0.00 0.00 0.00 95 1007.7
20260507035553 16 261 0.0 0.0 0.00 0.13 0.13 95 1008.0
20260507035049 16 215 0.0 0.0 0.00 0.13 0.13 95 1008.1
20260507034546 16 246 1.6 3.2 0.00 0.13 0.13 95 1008.3
20260507034044 16 270 0.0 1.6 0.00 0.13 0.13 95 1007.7
20260507033542 16 254 0.0 1.6 0.00 0.13 0.13 94 1008.0
20260507033039 16 215 1.6 3.2 0.00 0.13 0.13 94 1008.0
20260507032536 16 254 0.0 0.0 0.00 0.13 0.13 94 1007.8
20260507032032 17 261 0.0 0.0 0.00 0.13 0.13 94 1007.7
20260507031528 17 270 1.6 3.2 0.00 0.13 0.13 94 1007.7
20260507031026 17 254 0.0 3.2 0.00 0.13 0.13 93 1007.8
20260507030522 17 261 0.0 1.6 0.00 0.13 0.13 93 1008.0
20260507030020 17 263 1.6 3.2 0.00 0.13 0.13 93 1008.0
20260507025517 17 240 0.0 1.6 0.00 0.13 0.13 92 1007.8
20260507025014 17 206 0.0 3.2 0.00 0.13 0.13 92 1008.0
20260507024512 17 254 1.6 3.2 0.00 0.13 0.13 91 1007.9
20260507024008 17 270 0.0 4.8 0.00 0.13 0.13 91 1008.0
20260507023504 17 172 0.0 1.6 0.00 0.13 0.13 92 1008.2
20260507023002 17 259 3.2 3.2 0.00 0.13 0.13 93 1008.5
20260507022459 17 255 3.2 3.2 0.00 0.13 0.13 93 1008.3
20260507021954 17 203 0.0 0.0 0.00 0.13 0.13 93 1008.7
20260507021450 17 236 3.2 6.4 0.00 0.13 0.13 93 1008.4
20260507020947 17 194 1.6 4.8 0.00 0.13 0.13 93 1008.5
20260507020444 17 240 0.0 0.0 0.00 0.13 0.13 93 1008.5
20260507015941 17 209 0.0 3.2 0.00 0.13 0.13 92 1008.6
20260507015439 17 203 0.0 3.2 0.00 0.13 0.13 92 1008.7
20260507014936 17 187 0.0 3.2 0.00 0.13 0.13 92 1008.2
20260507014432 17 240 0.0 0.0 0.00 0.13 0.13 92 1008.6
20260507013929 17 254 0.0 3.2 0.00 0.13 0.13 92 1008.7
20260507013426 17 240 0.0 3.2 0.00 0.13 0.13 92 1008.7
20260507012923 17 234 0.0 0.0 0.00 0.13 0.13 92 1008.6
20260507012420 17 234 0.0 0.0 0.00 0.13 0.13 92 1008.6
20260507011917 17 234 0.0 3.2 0.00 0.13 0.13 92 1008.8
20260507011414 17 215 0.0 3.2 0.00 0.13 0.13 92 1008.8
20260507010913 17 248 3.2 3.2 0.00 0.13 0.13 91 1008.7
20260507010409 17 246 0.0 0.0 0.00 0.13 0.13 91 1008.6
20260507005906 17 195 0.0 3.2 0.00 0.13 0.13 91 1008.8
20260507005403 17 209 0.0 0.0 0.00 0.13 0.13 90 1008.4
20260507004900 17 209 0.0 1.6 0.00 0.13 0.13 90 1008.6
20260507004357 17 195 0.0 1.6 0.00 0.13 0.13 89 1008.5
20260507003854 18 212 3.2 3.2 0.00 0.13 0.13 88 1008.1
20260507003349 18 262 0.0 3.2 0.00 0.13 0.13 87 1008.0
20260507002845 18 270 0.0 3.2 0.00 0.13 0.13 87 1008.2
20260507002341 18 200 0.0 3.2 0.00 0.13 0.13 86 1008.1
20260507001838 18 246 0.0 3.2 0.00 0.13 0.13 85 1007.9
20260507001335 19 195 1.6 4.8 0.00 0.13 0.13 85 1008.0
20260507000831 19 220 3.2 3.2 0.00 0.13 0.13 84 1007.9
20260507000328 19 203 0.0 6.4 0.00 0.13 0.13 83 1007.8
20260506235824 19 165 0.0 6.4 0.00 0.13 0.13 83 1008.0
20260506235320 19 203 1.6 6.4 0.00 0.13 0.13 83 1007.8
20260506234816 20 240 3.2 3.2 0.00 0.13 0.13 82 1008.0
20260506234314 20 255 0.0 4.8 0.00 0.13 0.13 81 1008.0
20260506233812 20 206 3.2 4.8 0.00 0.13 0.13 80 1008.0
20260506233308 20 278 4.8 6.4 0.00 0.13 0.13 80 1007.9
20260506232805 20 165 3.2 8.0 0.00 0.13 0.13 79 1007.8
20260506232300 20 220 6.4 6.4 0.00 0.13 0.13 79 1007.7
20260506231757 20 251 4.8 6.4 0.00 0.13 0.13 79 1008.0
20260506231255 20 231 3.2 4.8 0.00 0.13 0.13 80 1007.9
20260506230752 20 235 4.8 11.3 0.00 0.13 0.13 79 1007.9
20260506230249 20 233 4.8 6.4 0.00 0.13 0.13 79 1008.2
20260506225745 20 247 8.0 9.7 0.00 0.13 0.13 79 1008.2
20260506225242 20 174 0.0 8.0 0.00 0.13 0.13 78 1008.1
20260506224738 21 238 4.8 4.8 0.00 0.13 0.13 79 1007.6
20260506224236 21 225 3.2 8.0 0.00 0.13 0.13 78 1007.5
20260506223732 21 357 8.0 8.0 0.00 0.13 0.13 78 1007.9
20260506223228 21 180 4.8 8.0 0.00 0.13 0.13 78 1007.7
20260506222725 21 213 3.2 8.0 0.00 0.13 0.13 77 1007.4
20260506222220 21 245 6.4 12.9 0.00 0.13 0.13 77 1007.6
20260506221719 21 222 4.8 11.3 0.00 0.13 0.13 76 1007.7
20260506221217 21 270 4.8 25.7 0.00 0.13 0.13 76 1007.8
20260506220713 21 237 3.2 9.7 0.00 0.13 0.13 76 1007.5
20260506215612 21 261 4.8 6.4 0.00 0.13 0.13 76 1007.5
20260506215107 21 261 4.8 6.4 0.00 0.13 0.13 76 1007.5
20260506214604 21 270 0.0 6.4 0.00 0.13 0.13 76 1007.7
20260506213804 21 210 0.0 8.0 0.00 0.13 0.13 75 1007.5
20260506213300 21 210 0.0 8.0 0.00 0.13 0.13 75 1007.5
20260506212758 21 209 1.6 8.0 0.00 0.13 0.13 76 1007.5
20260506212253 21 180 6.4 12.9 0.00 0.13 0.13 75 1007.4
20260506211748 21 225 0.0 6.4 0.00 0.13 0.13 77 1007.4
20260506211245 21 236 8.0 9.7 0.00 0.13 0.13 75 1007.3
20260506210742 21 273 4.8 4.8 0.00 0.13 0.13 77 1007.2
20260506210239 21 270 0.0 4.8 0.00 0.13 0.13 76 1007.2
20260506205736 21 265 6.4 6.4 0.00 0.13 0.13 76 1007.0
20260506205232 21 141 4.8 9.7 0.00 0.13 0.13 76 1007.0
20260506204729 21 221 3.2 11.3 0.00 0.13 0.13 76 1007.0
20260506204226 21 135 3.2 11.3 0.00 0.13 0.13 75 1007.0
20260506203724 21 135 3.2 11.3 0.00 0.13 0.13 75 1007.0
20260506203221 21 203 9.7 14.5 0.00 0.13 0.13 75 1006.8
20260506202719 21 162 4.8 8.0 0.00 0.13 0.13 76 1006.9
20260506201409 21 234 4.8 9.7 0.00 0.13 0.13 77 1007.2
20260506200905 21 234 4.8 9.7 0.00 0.13 0.13 77 1007.2
20260506200401 21 157 4.8 9.7 0.00 0.13 0.13 78 1007.1
20260506195858 21 225 6.4 12.9 0.00 0.13 0.13 77 1007.5
20260506195355 21 290 3.2 12.9 0.00 0.13 0.13 79 1007.5
20260506194851 20 330 3.2 9.7 0.00 0.13 0.13 79 1007.7
20260506194348 20 277 1.6 9.7 0.00 0.13 0.13 81 1007.9
20260506193846 20 246 8.0 9.7 0.00 0.13 0.13 81 1007.7
20260506193342 20 294 6.4 16.1 0.00 0.13 0.13 82 1007.9
20260506192839 20 204 6.4 11.3 0.00 0.13 0.13 82 1007.7
20260506192336 20 255 6.4 9.7 0.00 0.13 0.13 83 1007.8
20260506191833 19 189 8.0 11.3 0.00 0.13 0.13 83 1008.0
20260506191329 19 182 9.7 14.5 0.00 0.13 0.13 84 1007.8
20260506190826 19 263 4.8 8.0 0.00 0.13 0.13 86 1007.8
20260506190322 19 260 6.4 17.7 0.00 0.13 0.13 84 1007.9
20260506185819 18 178 14.5 20.9 0.00 0.13 0.13 88 1008.0
20260506185316 18 115 9.7 11.3 0.00 0.13 0.13 89 1008.3
20260506184813 18 264 8.0 9.7 0.00 0.13 0.13 89 1008.6
20260506184311 18 201 4.8 8.0 0.00 0.13 0.13 91 1008.5
20260506183808 18 121 4.8 8.0 0.00 0.13 0.13 91 1008.4
20260506183303 18 75 0.0 8.0 0.00 0.13 0.13 92 1008.3
20260506182800 17 225 6.4 12.9 0.00 0.13 0.13 92 1008.4
20260506182257 17 156 3.2 8.0 0.00 0.13 0.13 94 1008.4
20260506181755 17 191 3.2 8.0 0.00 0.13 0.13 95 1008.7
20260506181253 17 251 1.6 9.7 0.05 0.13 0.13 96 1008.6
20260506180750 17 228 0.0 6.4 0.23 0.13 0.13 95 1008.6
20260506180245 17 152 3.2 14.5 0.23 0.13 0.13 94 1008.9
20260506175742 17 216 8.0 9.7 0.13 0.10 0.10 93 1009.0
20260506175239 17 205 4.8 16.1 0.30 0.08 0.08 91 1008.7
20260506174737 17 255 4.8 14.5 0.30 0.05 0.05 90 1008.9
20260506174233 18 206 4.8 12.9 0.18 0.03 0.03 85 1009.0
20260506173732 19 291 0.0 8.0 0.00 0.00 0.00 81 1008.7
20260506173228 20 198 8.0 14.5 0.00 0.00 0.00 74 1009.1
20260506172724 21 180 0.0 11.3 0.00 0.00 0.00 72 1009.1
20260506172221 21 221 3.2 11.3 0.00 0.00 0.00 70 1008.8
20260506171719 21 170 6.4 9.7 0.00 0.00 0.00 70 1009.1
20260506171216 21 228 3.2 16.1 0.00 0.00 0.00 70 1009.0
20260506170713 21 99 4.8 12.9 0.00 0.00 0.00 71 1008.9
20260506170210 22 227 4.8 8.0 0.00 0.00 0.00 68 1008.9
20260506165708 22 241 6.4 6.4 0.00 0.00 0.00 66 1008.8
20260506165205 22 270 3.2 8.0 0.00 0.00 0.00 65 1009.2
20260506164702 22 208 3.2 14.5 0.00 0.00 0.00 65 1009.0
20260506164159 22 243 4.8 11.3 0.00 0.00 0.00 64 1009.1
20260506163655 22 166 8.0 17.7 0.00 0.00 0.00 63 1009.5
20260506163151 22 149 4.8 8.0 0.00 0.00 0.00 64 1009.5
20260506162647 22 248 12.9 12.9 0.00 0.00 0.00 63 1009.5
20260506162144 22 255 0.0 11.3 0.00 0.00 0.00 64 1009.6
20260506161641 22 274 4.8 12.9 0.00 0.00 0.00 64 1009.7
20260506161138 22 150 6.4 22.5 0.00 0.00 0.00 64 1010.0
20260506160636 22 165 6.4 17.7 0.00 0.00 0.00 64 1010.0
20260506160133 22 195 1.6 11.3 0.00 0.00 0.00 65 1009.9
20260506155632 22 258 4.8 9.7 0.00 0.00 0.00 65 1009.9
20260506155128 22 288 6.4 9.7 0.00 0.00 0.00 65 1010.2
20260506153230 22 256 11.3 16.1 0.00 0.00 0.00 64 1010.2
20260506152727 22 180 0.0 8.0 0.00 0.00 0.00 64 1010.0
20260506152224 22 247 8.0 9.7 0.00 0.00 0.00 62 1010.2
20260506151724 22 292 3.2 14.5 0.00 0.00 0.00 63 1010.3
20260506151219 22 133 9.7 14.5 0.00 0.00 0.00 62 1010.2
20260506150716 22 260 6.4 12.9 0.00 0.00 0.00 62 1010.1
20260506150213 22 255 4.8 14.5 0.00 0.00 0.00 64 1010.0
20260506145710 22 255 4.8 19.3 0.00 0.00 0.00 63 1010.2
20260506145207 22 291 4.8 14.5 0.00 0.00 0.00 61 1010.4
20260506144704 22 282 3.2 19.3 0.00 0.00 0.00 64 1010.3
20260506144201 22 163 6.4 20.9 0.00 0.00 0.00 63 1010.4
20260506143659 21 215 8.0 16.1 0.00 0.00 0.00 64 1010.3
20260506143156 21 227 14.5 14.5 0.00 0.00 0.00 64 1010.5
20260506142655 21 176 3.2 14.5 0.00 0.00 0.00 64 1010.5
20260506142152 22 202 3.2 14.5 0.00 0.00 0.00 64 1010.3
20260506141650 21 241 3.2 20.9 0.00 0.00 0.00 63 1010.5
20260506141148 22 290 8.0 14.5 0.00 0.00 0.00 62 1010.6
20260506140645 21 273 4.8 16.1 0.00 0.00 0.00 65 1010.4
20260506140142 21 197 0.0 20.9 0.00 0.00 0.00 64 1010.5
20260506135639 21 96 0.0 16.1 0.00 0.00 0.00 65 1010.3
20260506135135 21 195 6.4 12.9 0.00 0.00 0.00 65 1010.6
20260506134632 20 192 9.7 11.3 0.00 0.00 0.00 67 1010.4
20260506134127 20 161 3.2 11.3 0.00 0.00 0.00 67 1010.5
20260506133625 20 202 6.4 6.4 0.00 0.00 0.00 66 1010.6
20260506133122 21 204 0.0 8.0 0.00 0.00 0.00 65 1010.5
20260506132619 21 204 0.0 8.0 0.00 0.00 0.00 65 1010.5
20260506132116 21 248 9.7 20.9 0.00 0.00 0.00 63 1010.7
20260506131614 21 0 0.0 9.7 0.00 0.00 0.00 66 1010.8
20260506131110 21 225 4.8 8.0 0.00 0.00 0.00 64 1011.0
20260506130607 22 8 0.0 4.8 0.00 0.00 0.00 64 1010.8
20260506130104 22 233 4.8 9.7 0.00 0.00 0.00 64 1011.0
20260506125603 21 212 6.4 12.9 0.00 0.00 0.00 65 1010.7
20260506125100 21 180 6.4 12.9 0.00 0.00 0.00 65 1010.7
20260506124557 21 340 0.0 14.5 0.00 0.00 0.00 67 1010.9
20260506124055 21 207 6.4 11.3 0.00 0.00 0.00 66 1010.8
20260506123552 21 161 8.0 11.3 0.00 0.00 0.00 66 1010.9
20260506123051 21 177 4.8 8.0 0.00 0.00 0.00 67 1010.9
20260506122547 21 264 1.6 12.9 0.00 0.00 0.00 68 1010.9
20260506122045 21 253 9.7 16.1 0.00 0.00 0.00 68 1011.0
20260506121542 20 173 1.6 16.1 0.00 0.00 0.00 69 1010.8
20260506121038 20 230 4.8 27.4 0.00 0.00 0.00 73 1010.9
20260506120537 19 195 3.2 4.8 0.00 0.00 0.00 72 1010.9
20260506120034 20 249 11.3 12.9 0.00 0.00 0.00 71 1010.9
20260506115532 20 211 8.0 9.7 0.00 0.00 0.00 72 1011.0
20260506115030 19 37 6.4 9.7 0.00 0.00 0.00 74 1011.0
20260506114527 19 180 1.6 11.3 0.00 0.00 0.00 75 1011.0
20260506114026 18 107 6.4 11.3 0.00 0.00 0.00 76 1010.9
20260506113523 18 300 1.6 6.4 0.00 0.00 0.00 77 1010.9
20260506113020 18 225 4.8 6.4 0.00 0.00 0.00 79 1010.8
20260506112516 17 151 1.6 6.4 0.00 0.00 0.00 79 1010.7
20260506112014 17 167 4.8 8.0 0.00 0.00 0.00 80 1010.7
20260506111512 17 133 4.8 6.4 0.00 0.00 0.00 83 1010.9
20260506111009 16 97 4.8 9.7 0.00 0.00 0.00 83 1010.8
20260506110507 16 312 0.0 6.4 0.00 0.00 0.00 85 1011.0
20260506110004 16 114 1.6 4.8 0.00 0.00 0.00 85 1010.8
20260506105459 16 170 4.8 8.0 0.00 0.00 0.00 85 1010.9
20260506104957 16 237 4.8 6.4 0.00 0.00 0.00 86 1010.8
20260506104455 16 195 0.0 6.4 0.00 0.00 0.00 87 1011.0
20260506103953 15 248 0.0 3.2 0.00 0.00 0.00 87 1010.8
20260506103449 15 182 4.8 6.4 0.00 0.00 0.00 88 1011.1
20260506102946 15 270 0.0 6.4 0.00 0.00 0.00 88 1010.9
20260506102444 15 233 4.8 8.0 0.00 0.00 0.00 88 1010.7
20260506101941 15 253 0.0 6.4 0.00 0.00 0.00 88 1010.7
20260506101438 15 173 6.4 6.4 0.00 0.00 0.00 88 1010.7
20260506100935 15 160 1.6 9.7 0.00 0.00 0.00 89 1010.6
20260506100433 15 162 3.2 3.2 0.00 0.00 0.00 89 1010.7
20260506095931 15 198 3.2 8.0 0.00 0.00 0.00 89 1010.8
20260506095429 15 246 0.0 4.8 0.00 0.00 0.00 90 1010.7
20260506094925 15 237 3.2 11.3 0.00 0.00 0.00 90 1010.5